Content
SEND FEEDBACK

Daily
Averages
Monthly
Summary
Canada

AMHERST, NOVA SCOTIA


Home > North America > Canada > Nova Scotia
Elevation: 66 feet     Latitude: 45 46N     Longitude: 064 15W

WEATHER
 
SELECT A DAY
Number of Records: 101,272;   Date Range: 6/19/04 - 12/25/14
 
SHARE

PRINT THIS DATA

[ ← Previous Day ]
WEATHER ALMANAC - FEBRUARY 13, 2013
[ Next Day → ]
[ °C ]   °F
Weather ElementAverageHighLow
Temperature32 °F35.2 °F (2:00 pm)28.4 °F (11:00 pm)
Dewpoint28.9 °F30.7 °F (3:00 am)27 °F (2:00 pm)
Humidity88.1 %96 % (2:00 am)64 % (2:00 pm)
Barometer29.65 in29.74 in (11:00 pm)29.52 in (1:00 am)
Wind Speed4.9 mph8.1 mph (5:00 am)
Weather ElementAverage
Wind DirectionWSW (256.9 °)

Weather ElementTotal
Precipitation0.01 in
Heating Degree Days33.2 (Base 65)
Averaged from 26 records on February 13, 2013
WEATHER CONDITIONS BREAKOUT
WIND DIRECTION BREAKOUT
WEATHER BY HOUR - FEBRUARY 13, 2013
[ °C ]   °F
Local TimeTemperatureDewpointHumidityBarometerVisibilityWind DirectionWind SpeedGust SpeedPrecipitationEventsConditions
1:00 AM31.6 °F29.8 °F93 %29.52 inNNW (330°)6.9 mph
2:00 AM31.0 °F30.0 °F96 %29.55 inWNW (290°)5.8 mph
2:00 AM31.5 °F30.4 °F96 %29.55 inWNW (290°)5.8 mph
3:00 AM31.6 °F30.7 °F96 %29.57 inWest (280°)6.9 mph
4:00 AM31.8 °F30.6 °F95 %29.58 inWNW (290°)6.9 mph
5:00 AM31.5 °F29.1 °F91 %29.57 inNW (310°)8.1 mph
6:00 AM29.8 °F28.2 °F94 %29.59 inSSW (200°)3.5 mph
7:00 AM30.0 °F28.4 °F94 %29.62 inSW (230°)3.5 mph
8:00 AM31.0 °F28.0 °F84 %29.65 inWest (270°)4.6 mph
8:00 AM30.9 °F28.0 °F89 %29.65 inWest (270°)4.6 mph
9:00 AM31.5 °F28.0 °F87 %29.67 inWest (270°)5.8 mph
10:00 AM31.6 °F28.2 °F87 %29.67 inWSW (240°)6.9 mph0.01 in
11:00 AM33.1 °F28.4 °F83 %29.68 inWSW (250°)8.1 mph
12:00 PM32.9 °F28.2 °F83 %29.67 inWest (260°)6.9 mph
2:00 PM35.0 °F27.0 °F64 %29.66 inWest (280°)8.1 mph
2:00 PM35.2 °F27.3 °F73 %29.66 inWest (280°)8.1 mph
3:00 PM34.0 °F28.4 °F80 %29.66 inWNW (290°)5.8 mph
4:00 PM33.6 °F29.1 °F84 %29.67 inWNW (300°)3.5 mph
5:00 PM33.6 °F29.3 °F84 %29.69 inSSW (210°)2.3 mph
6:00 PM33.1 °F29.7 °F87 %29.71 inWest (260°)3.5 mph
7:00 PM31.6 °F30.4 °F95 %29.72 inNW (310°)2.3 mph
8:00 PM32.0 °F30.0 °F88 %29.72 inWSW (250°)1.2 mph
8:00 PM32.0 °F29.8 °F92 %29.72 inWSW (250°)1.2 mph
9:00 PM31.8 °F29.1 °F90 %29.73 inWNW (290°)3.5 mph
10:00 PM30.6 °F27.9 °F90 %29.73 inCalm
11:00 PM28.4 °F27.1 °F95 %29.74 inSouth (180°)2.3 mph
Hourly data recorded from CXNP, located miles away from Amherst, Nova Scotia







STORIES FROM OUR PARTNERS